Location: �chenoz-la-M�line
(47.6009°N, 6.1354°E)
Time: 13:06:24
(UTC+00:00)

SJ-12 - Pass Details

Date: 27 January 2021
Orbit: 568 x 585 km, 97.7° (Epoch: 02 March)

Event Time Altitude Azimuth Distance (km) Brightness Sun altitude
Rises 04:56:15 0° 11° (N) 2,823 7.5 -22.1°
Reaches altitude 10° 04:58:25 10° 9° (N) 1,918 6.6 -21.8°
Maximum altitude 05:02:34 72° 286° (WNW) 617 3.8 -21.1°
Enters shadow 05:04:47 26° 206° (SSW) 1,151 5.2 -20.7°
